TimeCST,TemperatureF,Dew PointF,Humidity,Sea Level PressureIn,VisibilityMPH,Wind Direction,Wind SpeedMPH,Gust SpeedMPH,PrecipitationIn,Events,Conditions,WindDirDegrees,DateUTC
12:15 AM,26.6,24.6,92,30.39,7.0,Calm,Calm,-,N/A,,Overcast,0,2012-11-15 06:15:00
12:35 AM,27.1,24.8,91,30.39,7.0,Calm,Calm,-,N/A,,Overcast,0,2012-11-15 06:35:00
12:55 AM,23.4,20.7,89,30.39,7.0,Calm,Calm,-,N/A,,Overcast,0,2012-11-15 06:55:00
1:15 AM,24.1,21.4,89,30.39,7.0,Calm,Calm,-,N/A,,Overcast,0,2012-11-15 07:15:00
1:35 AM,27.5,25.0,90,30.38,7.0,Calm,Calm,-,N/A,,Overcast,0,2012-11-15 07:35:00
1:55 AM,25.9,23.0,89,30.39,7.0,Calm,Calm,-,N/A,,Mostly Cloudy,0,2012-11-15 07:55:00
2:15 AM,26.2,24.1,92,30.39,5.0,Calm,Calm,-,N/A,,Scattered Clouds,0,2012-11-15 08:15:00
2:35 AM,26.8,24.6,92,30.39,5.0,Calm,Calm,-,N/A,,Scattered Clouds,0,2012-11-15 08:35:00
2:55 AM,24.1,21.4,89,30.38,5.0,Calm,Calm,-,N/A,,Mostly Cloudy,0,2012-11-15 08:55:00
3:15 AM,25.2,23.4,93,30.37,5.0,Calm,Calm,-,N/A,,Mostly Cloudy,0,2012-11-15 09:15:00
3:35 AM,26.2,25.0,95,30.36,5.0,Calm,Calm,-,N/A,,Scattered Clouds,0,2012-11-15 09:35:00
3:55 AM,26.6,25.2,94,30.36,5.0,Calm,Calm,-,N/A,,Clear,0,2012-11-15 09:55:00
4:15 AM,23.4,21.7,94,30.37,5.0,Calm,Calm,-,N/A,,Clear,0,2012-11-15 10:15:00
4:35 AM,24.3,23.0,95,30.37,4.0,Calm,Calm,-,N/A,,Clear,0,2012-11-15 10:35:00
4:55 AM,20.7,19.4,95,30.37,4.0,Calm,Calm,-,N/A,,Clear,0,2012-11-15 10:55:00
5:15 AM,20.8,19.6,95,30.37,5.0,Calm,Calm,-,N/A,,Clear,0,2012-11-15 11:15:00
5:35 AM,21.2,19.8,94,30.37,4.0,Calm,Calm,-,N/A,,Clear,0,2012-11-15 11:35:00
5:55 AM,20.8,19.2,93,30.37,5.0,Calm,Calm,-,N/A,,Clear,0,2012-11-15 11:55:00
6:15 AM,22.3,21.0,95,30.38,3.0,Calm,Calm,-,N/A,,Clear,0,2012-11-15 12:15:00
6:35 AM,20.5,19.2,95,30.38,4.0,Calm,Calm,-,N/A,,Clear,0,2012-11-15 12:35:00
6:55 AM,22.3,21.2,96,30.39,3.0,Calm,Calm,-,N/A,,Clear,0,2012-11-15 12:55:00
7:15 AM,23.0,21.7,95,30.39,4.0,Calm,Calm,-,N/A,,Clear,0,2012-11-15 13:15:00
7:35 AM,26.2,25.3,96,30.39,2.0,ESE,3.5,-,N/A,,Clear,110,2012-11-15 13:35:00
7:55 AM,27.5,26.6,96,30.39,2.5,Calm,Calm,-,N/A,,Clear,0,2012-11-15 13:55:00
8:15 AM,28.8,27.5,95,30.40,3.0,Calm,Calm,-,N/A,,Clear,0,2012-11-15 14:15:00
8:35 AM,29.8,27.9,92,30.40,3.0,Calm,Calm,-,N/A,,Clear,0,2012-11-15 14:35:00
8:55 AM,31.3,28.6,90,30.40,3.0,SSE,3.5,-,N/A,,Clear,160,2012-11-15 14:55:00
9:15 AM,32.2,29.3,89,30.41,4.0,SSE,3.5,-,N/A,,Clear,150,2012-11-15 15:15:00
9:35 AM,34.0,29.8,85,30.41,5.0,Calm,Calm,-,N/A,,Clear,0,2012-11-15 15:35:00
9:55 AM,35.2,30.2,82,30.41,5.0,South,3.5,-,N/A,,Haze,190,2012-11-15 15:55:00
10:15 AM,36.7,29.3,75,30.40,5.0,Calm,Calm,-,N/A,,Haze,0,2012-11-15 16:15:00
10:35 AM,38.3,29.3,70,30.40,7.0,SSW,4.6,-,N/A,,Clear,210,2012-11-15 16:35:00
10:55 AM,38.3,29.1,70,30.40,7.0,SSW,3.5,-,N/A,,Clear,210,2012-11-15 16:55:00
11:15 AM,39.2,28.4,65,30.39,7.0,Calm,Calm,-,N/A,,Clear,0,2012-11-15 17:15:00
11:35 AM,40.3,29.3,65,30.39,7.0,SW,4.6,-,N/A,,Clear,230,2012-11-15 17:35:00
11:55 AM,40.8,28.8,62,30.37,7.0,SW,3.5,-,N/A,,Clear,230,2012-11-15 17:55:00
12:15 PM,41.9,28.8,60,30.36,10.0,WSW,4.6,-,N/A,,Clear,250,2012-11-15 18:15:00
12:35 PM,42.6,28.6,58,30.35,10.0,SE,3.5,-,N/A,,Clear,130,2012-11-15 18:35:00
12:55 PM,42.8,27.3,54,30.35,10.0,WSW,3.5,-,N/A,,Clear,250,2012-11-15 18:55:00
1:15 PM,43.7,26.8,51,30.34,10.0,Calm,Calm,-,N/A,,Clear,0,2012-11-15 19:15:00
1:35 PM,43.9,26.1,50,30.34,10.0,SW,4.6,-,N/A,,Clear,230,2012-11-15 19:35:00
1:55 PM,44.1,26.1,49,30.34,10.0,SW,4.6,-,N/A,,Clear,230,2012-11-15 19:55:00
2:15 PM,44.6,26.4,49,30.33,10.0,SW,5.8,-,N/A,,Clear,230,2012-11-15 20:15:00
2:35 PM,44.6,25.7,48,30.33,10.0,WSW,3.5,-,N/A,,Clear,250,2012-11-15 20:35:00
2:55 PM,44.4,26.2,49,30.33,10.0,SW,4.6,-,N/A,,Clear,230,2012-11-15 20:55:00
3:15 PM,43.9,26.2,50,30.33,10.0,SW,3.5,-,N/A,,Clear,220,2012-11-15 21:15:00
3:35 PM,43.2,26.8,52,30.34,10.0,SW,3.5,-,N/A,,Clear,230,2012-11-15 21:35:00
3:55 PM,42.3,27.1,55,30.34,10.0,SW,3.5,-,N/A,,Clear,220,2012-11-15 21:55:00
4:15 PM,41.2,26.1,55,30.34,10.0,Calm,Calm,-,N/A,,Clear,0,2012-11-15 22:15:00
4:35 PM,37.4,25.7,63,30.34,10.0,Calm,Calm,-,N/A,,Clear,0,2012-11-15 22:35:00
4:55 PM,33.8,25.3,71,30.34,10.0,Calm,Calm,-,N/A,,Scattered Clouds,0,2012-11-15 22:55:00
5:15 PM,34.2,25.5,71,30.35,10.0,Calm,Calm,-,N/A,,Clear,0,2012-11-15 23:15:00
5:35 PM,32.4,25.2,75,30.36,10.0,Calm,Calm,-,N/A,,Clear,0,2012-11-15 23:35:00
5:55 PM,32.2,24.1,72,30.36,10.0,Calm,Calm,-,N/A,,Clear,0,2012-11-15 23:55:00
6:15 PM,29.5,24.1,80,30.36,10.0,Calm,Calm,-,N/A,,Clear,0,2012-11-16 00:15:00
6:35 PM,29.7,24.3,80,30.36,10.0,Calm,Calm,-,N/A,,Clear,0,2012-11-16 00:35:00
6:55 PM,30.0,25.2,82,30.36,10.0,Calm,Calm,-,N/A,,Clear,0,2012-11-16 00:55:00
7:15 PM,29.1,24.8,84,30.36,10.0,Calm,Calm,-,N/A,,Clear,0,2012-11-16 01:15:00
7:35 PM,27.9,23.7,84,30.37,10.0,Calm,Calm,-,N/A,,Clear,0,2012-11-16 01:35:00
7:55 PM,26.6,23.4,88,30.37,7.0,Calm,Calm,-,N/A,,Scattered Clouds,0,2012-11-16 01:55:00
8:15 PM,27.7,25.0,90,30.37,7.0,Calm,Calm,-,N/A,,Scattered Clouds,0,2012-11-16 02:15:00
8:35 PM,27.9,25.9,92,30.37,7.0,Calm,Calm,-,N/A,,Scattered Clouds,0,2012-11-16 02:35:00
8:55 PM,26.6,24.8,93,30.37,5.0,Calm,Calm,-,N/A,,Clear,0,2012-11-16 02:55:00
9:15 PM,27.9,26.2,94,30.37,7.0,Calm,Calm,-,N/A,,Clear,0,2012-11-16 03:15:00
9:35 PM,25.7,23.7,92,30.38,7.0,Calm,Calm,-,N/A,,Scattered Clouds,0,2012-11-16 03:35:00
9:55 PM,27.3,25.9,94,30.37,7.0,Calm,Calm,-,N/A,,Scattered Clouds,0,2012-11-16 03:55:00
10:15 PM,26.8,24.6,92,30.37,7.0,Calm,Calm,-,N/A,,Scattered Clouds,0,2012-11-16 04:15:00
10:35 PM,25.0,22.8,91,30.37,7.0,Calm,Calm,-,N/A,,Scattered Clouds,0,2012-11-16 04:35:00
10:55 PM,26.4,24.3,92,30.37,7.0,Calm,Calm,-,N/A,,Mostly Cloudy,0,2012-11-16 04:55:00
11:15 PM,26.2,24.4,93,30.38,7.0,Calm,Calm,-,N/A,,Mostly Cloudy,0,2012-11-16 05:15:00
11:35 PM,25.0,23.2,93,30.39,5.0,Calm,Calm,-,N/A,,Mostly Cloudy,0,2012-11-16 05:35:00
11:55 PM,25.2,23.4,93,30.39,7.0,Calm,Calm,-,N/A,,Mostly Cloudy,0,2012-11-16 05:55:00